sat.trackr.live / text

‹ back to catalog

STARLINK-30363

NORAD 57744 · 2023-131N

PAYLOAD ACTIVE UNKNOWN

§ Identity

Operator
Country
US
Launch date
2023-09-01
Launch site
AFETR
Launch vehicle
Mass (kg)
RCS (m²)

Purposes: comms

External: N2YO · Heavens-Above · Gunter

§ Orbital elements

Epoch: 2026-05-25T04:05:08.104416Z

Period
94.27 min
Inclination
43.0068°
Eccentricity
0.0001841
Mean motion
15.27573819 rev/d
Perigee alt
481.8 km
Apogee alt
484.3 km
Semi-major
6,861.2 km
B*
-3.4974e-5
RAAN
86.0201°
Arg perigee
252.7040°
Mean anomaly
107.3610°
Rev number
15,178

§ Raw data

STARLINK-303631 57744U 23131N   26145.17023269 -.00001225  00000+0 -34974-4 0  99972 57744  43.0068  86.0201 0001841 252.7040 107.3610 15.27573819151789

JSON: /api/v1/satellites/57744 · /tle

For live sub-satellite position, see the globe view (requires WebGL).

§ Visibility from observer

Set your observer location to see the next 7 days of passes ≥ 10°. The values pass through the URL so the page stays shareable.

No JS? Fill the form by hand. The geolocation button needs JavaScript.